Location: Santa Fe
(35.6870°N, 105.9370°W)
Time: 01:00:19
(UTC-06:00)

Amateur Radio Satellites - All Passes

Search period start: 28 August 2016 00:30
Search period end: 29 August 2016 00:30
Location: Santa Fe, 35.6870°N, 105.9370°W

Satellite Date Start Highest point End Downlink Frequencies (MHz)
Time Altitude Azimuth
GONETS M04 28 Aug 00:44:05 00:52:18 45° 272° (W) 01:00:29
UNISAT 6 28 Aug 00:46:43 00:47:57 11° 295° (WNW) 00:49:09 437.425
JAS-2 28 Aug 01:00:09 01:07:05 64° 102° (ESE) 01:14:40 435.910
VELOX 1 28 Aug 01:07:28 01:10:52 21° 265° (W) 01:14:17 145.980
CUBEBUG 1 28 Aug 01:09:35 01:12:23 17° 266° (W) 01:15:13 437.445
BUGSAT 1 28 Aug 01:10:37 01:14:44 69° 102° (ESE) 01:18:46 437.445
Oscar 19 28 Aug 01:11:06 01:12:42 11° 91° (E) 01:14:16 437.125/150
O/OREOS (USA 219) 28 Aug 01:11:28 01:15:22 28° 257° (WSW) 01:19:15 437.305
QB50P1 28 Aug 01:14:41 01:18:31 35° 288° (WNW) 01:22:20 145.935-145.965
SO-50 28 Aug 01:16:18 01:19:32 17° 313° (NW) 01:22:45 436.795
DX 1 28 Aug 01:24:03 01:27:17 20° 265° (W) 01:30:32 434.975-435.025
SWISSCUBE 28 Aug 01:24:22 01:26:18 12° 64° (ENE) 01:28:15 437.505
POPSAT HIP 1 28 Aug 01:24:56 01:28:31 28° 289° (WNW) 01:32:05 437.405
SPROUT 28 Aug 01:24:59 01:28:37 26° 264° (W) 01:32:15 437.525
RS-15 28 Aug 01:39:03 01:50:27 79° 115° (ESE) 02:02:31 29.354- 29.394
BEESAT 28 Aug 01:40:17 01:43:16 17° 66° (ENE) 01:46:16 436.000
Cosmos 2499 28 Aug 01:40:32 01:45:00 18° 277° (W) 01:49:31 435.465 / 435.565
TISAT 1 28 Aug 01:42:14 01:46:29 84° 258° (WSW) 01:50:45 437.305
PHONESAT 2.4 28 Aug 01:49:46 01:52:43 58° 154° (SSE) 01:55:41 2401.200-2431.200
DUCHIFAT 1 28 Aug 01:53:16 01:55:44 15° 293° (WNW) 01:58:11 145.980
QB50P2 28 Aug 01:57:10 01:58:44 12° 295° (WNW) 02:00:17 145.880/145.840
POLYITAN 1 28 Aug 01:59:46 02:01:14 12° 295° (WNW) 02:02:42 437.675
Gurwin Techsat 1B 28 Aug 02:21:15 02:25:45 28° 96° (E) 02:30:14 435.225
ITUPSAT 1 28 Aug 02:26:03 02:30:38 50° 73° (ENE) 02:35:14 437.325
JAS-2 28 Aug 02:46:25 02:51:37 23° 295° (WNW) 02:57:11 435.910
Oscar 19 28 Aug 02:47:15 02:52:27 71° 285° (WNW) 02:57:36 437.125/150
SWISSCUBE 28 Aug 02:58:50 03:03:31 62° 259° (WSW) 03:08:15 437.505
AO-7 28 Aug 03:03:21 03:06:09 12° 90° (E) 03:08:57 29.400- 29.500
BEESAT 28 Aug 03:16:07 03:20:40 45° 260° (W) 03:25:13 436.000
KKS-1 28 Aug 03:19:23 03:22:32 19° 67° (ENE) 03:25:43 437.445
PHONESAT 2.4 28 Aug 03:26:21 03:29:10 37° 350° (N) 03:31:59 2401.200-2431.200
MOZHAYETS 4 28 Aug 03:26:51 03:30:47 29° 71° (ENE) 03:34:43
STARS 28 Aug 03:53:59 03:57:22 22° 69° (ENE) 04:00:46 437.465
RS-15 28 Aug 03:54:10 04:04:15 32° 320° (NW) 04:14:49 29.354- 29.394
Gurwin Techsat 1B 28 Aug 04:00:59 04:05:38 32° 291° (WNW) 04:10:16 435.225
ITAMSAT 1 28 Aug 04:02:07 04:07:18 78° 103° (ESE) 04:12:29 435.822/435.867
ITUPSAT 1 28 Aug 04:06:12 04:08:42 14° 267° (W) 04:11:13 437.325
Cosmos 2491 28 Aug 04:24:10 04:30:27 21° 68° (ENE) 04:36:42 435.465 / 435.565
CUBESAT XI-V 28 Aug 04:48:02 04:51:52 27° 70° (ENE) 04:55:43 437.345
AO-7 28 Aug 04:51:38 04:59:59 78° 106° (ESE) 05:08:16 29.400- 29.500
KKS-1 28 Aug 04:54:45 04:58:50 34° 262° (W) 05:02:56 437.445
PHONESAT 2.4 28 Aug 05:03:07 05:05:54 33° 7° (N) 05:08:39 2401.200-2431.200
MOZHAYETS 4 28 Aug 05:04:21 05:07:55 22° 265° (W) 05:11:28
AO-85 28 Aug 05:12:00 05:17:14 55° 116° (ESE) 05:22:14 145.980
STARS 28 Aug 05:29:40 05:33:32 29° 263° (W) 05:37:24 437.465
YUBILEINY 28 Aug 05:34:24 05:41:26 28° 83° (E) 05:48:27 435.215
ITAMSAT 1 28 Aug 05:44:23 05:46:04 12° 298° (WNW) 05:47:45 435.822/435.867
HORYU 2 28 Aug 06:10:27 06:14:53 86° 107° (ESE) 06:19:17 437.375
RS-15 28 Aug 06:16:25 06:22:33 15° 354° (N) 06:28:46 29.354- 29.394
GOMX 1 28 Aug 06:17:42 06:21:20 18° 91° (E) 06:24:49 467.674
LilacSat-2 28 Aug 06:18:36 06:20:17 13° 93° (E) 06:21:59 437.200
Cosmos 2491 28 Aug 06:19:17 06:28:06 75° 267° (W) 06:36:53 435.465 / 435.565
STRAND 1 28 Aug 06:20:38 06:23:25 15° 64° (ENE) 06:26:13 437.568
CUBESAT XI-V 28 Aug 06:25:22 06:29:09 25° 264° (W) 06:32:58 437.345
Cubesat XI-IV 28 Aug 06:34:26 06:38:46 25° 96° (E) 06:43:05 437.490
PHONESAT 2.4 28 Aug 06:39:26 06:42:25 83° 203° (SSW) 06:45:24 2401.200-2431.200
BRITE-PL 28 Aug 06:42:34 06:48:17 77° 101° (E) 06:53:49 437.365/2234.400
NOAA 15 28 Aug 06:45:16 06:50:18 42° 99° (E) 06:55:19 137.62
CUTE-I 28 Aug 06:45:48 06:50:34 33° 97° (E) 06:55:18 437.470
AO-7 28 Aug 06:45:59 06:51:50 22° 304° (NW) 06:57:42 29.400- 29.500
AO-85 28 Aug 06:54:08 06:57:58 20° 310° (NW) 07:01:41 145.980
Cosmos 2504 28 Aug 07:22:28 07:30:37 51° 90° (E) 07:38:14 435.465 / 435.565
YUBILEINY 28 Aug 07:28:58 07:37:36 57° 281° (W) 07:46:17 435.215
NOAA 18 28 Aug 07:29:50 07:35:20 77° 103° (ESE) 07:40:46 137.9125
LilacSat-2 28 Aug 07:51:16 07:54:41 33° 287° (WNW) 07:58:05 437.200
GOMX 1 28 Aug 07:54:29 07:59:38 47° 288° (WNW) 08:04:31 467.674
STRAND 1 28 Aug 07:57:03 08:02:04 59° 259° (W) 08:07:06 437.568
DOVE 4 28 Aug 07:58:16 08:03:19 87° 102° (ESE) 08:08:00 437.250
ISS 28 Aug 07:58:21 08:01:17 31° 132° (SE) 08:04:14 145.825
SO-50 28 Aug 08:08:50 08:12:32 23° 50° (NE) 08:16:09 436.795
Cubesat XI-IV 28 Aug 08:14:04 08:18:50 35° 290° (WNW) 08:23:36 437.490
HO-68 28 Aug 08:15:26 08:21:45 33° 97° (E) 08:28:01 435.675
PHONESAT 2.4 28 Aug 08:16:59 08:18:25 13° 216° (SW) 08:19:51 2401.200-2431.200
Cosmos 2491 28 Aug 08:21:10 08:23:18 11° 284° (WNW) 08:25:25 435.465 / 435.565
BRITE-PL 28 Aug 08:23:10 08:25:58 14° 297° (WNW) 08:28:45 437.365/2234.400
NOAA 15 28 Aug 08:25:47 08:29:44 22° 294° (WNW) 08:33:41 137.62
CUTE-I 28 Aug 08:26:03 08:30:26 27° 292° (WNW) 08:34:49 437.470
RS-15 28 Aug 08:32:36 08:41:57 24° 31° (NNE) 08:51:12 29.354- 29.394
CINEMA 3 28 Aug 08:34:58 08:39:22 54° 100° (E) 08:43:32 145.822/145.860
BEESAT 3 28 Aug 08:41:27 08:43:23 13° 109° (ESE) 08:45:21 437.485
SEEDS 28 Aug 08:46:48 08:50:43 37° 98° (E) 08:54:38 437.485
UWE-3 28 Aug 08:47:58 08:48:48 11° 91° (E) 08:49:39 435.000/436.395/437.385
CUBEBUG 2 28 Aug 08:49:44 08:52:42 19° 94° (E) 08:55:37 437.445
PRISM 28 Aug 09:02:27 09:06:31 78° 76° (ENE) 09:10:38 437.425
CANX-2 28 Aug 09:09:23 09:13:36 65° 283° (WNW) 09:17:48 2200.000
NOAA 18 28 Aug 09:12:55 09:15:16 13° 299° (WNW) 09:17:36 137.9125
CUTE 1.7 + AOD 2 28 Aug 09:15:22 09:19:34 65° 285° (WNW) 09:23:46 437.475
AAUSAT CUBESAT 2 28 Aug 09:16:06 09:20:05 43° 99° (E) 09:24:03 437.432
Cosmos 2504 28 Aug 09:17:02 09:24:08 30° 286° (WNW) 09:30:55 435.465 / 435.565
COMPASS 1 28 Aug 09:24:38 09:28:50 74° 102° (ESE) 09:33:00 437.405
AIST 1 28 Aug 09:29:32 09:33:50 67° 94° (E) 09:38:11
ISS 28 Aug 09:35:04 09:37:46 23° 328° (NNW) 09:40:29 145.825
TIGRISAT 28 Aug 09:35:53 09:38:46 17° 67° (ENE) 09:41:38 435.000
SO-50 28 Aug 09:48:57 09:53:02 33° 247° (WSW) 09:57:01 436.795
CUSAT 1 28 Aug 09:52:57 09:58:54 32° 76° (ENE) 10:05:40 437.405
BEESAT 2 28 Aug 09:59:58 10:03:50 59° 116° (ESE) 10:07:45 435.950
HO-68 28 Aug 10:02:51 10:09:28 42° 293° (WNW) 10:16:04 435.675
UNISAT 6 28 Aug 10:03:15 10:07:26 35° 72° (ENE) 10:11:34 437.425
Oscar 11 28 Aug 10:04:04 10:08:21 60° 101° (E) 10:12:36 145.826/435.025
FUNcube-1 28 Aug 10:12:29 10:16:38 71° 102° (ESE) 10:20:44 145.935
CINEMA 3 28 Aug 10:14:14 10:15:55 12° 296° (WNW) 10:17:35 145.822/145.860
BEESAT 3 28 Aug 10:16:59 10:20:40 39° 303° (WNW) 10:24:23 437.485
UWE-3 28 Aug 10:21:30 10:25:33 49° 286° (WNW) 10:29:31 435.000/436.395/437.385
SEEDS 28 Aug 10:23:34 10:26:05 16° 292° (WNW) 10:28:36 437.485
CUBEBUG 2 28 Aug 10:25:43 10:29:20 28° 289° (WNW) 10:32:54 437.445
ZACube-1 28 Aug 10:34:27 10:38:31 56° 285° (WNW) 10:42:34 437.345
JUGNU 28 Aug 10:37:58 10:40:20 12° 168° (SSE) 10:42:42 437.505
ANTELSAT 28 Aug 10:39:41 10:44:19 89° 251° (WSW) 10:48:52 437.575/2403.000
POPSAT HIP 1 28 Aug 10:41:10 10:42:31 11° 65° (ENE) 10:43:51 437.405
RS-15 28 Aug 10:44:44 10:57:10 72° 58° (ENE) 11:09:14 29.354- 29.394
DELFI C3 28 Aug 10:49:06 10:53:07 86° 102° (ESE) 10:57:08 145.870
AAUSAT CUBESAT 2 28 Aug 10:53:08 10:55:08 13° 293° (WNW) 10:57:09 437.432
DANDE 28 Aug 10:55:42 11:01:04 39° 79° (E) 11:07:46 436.750
PCSat 28 Aug 11:01:19 11:05:35 24° 107° (ESE) 11:09:53 145.827
DUCHIFAT 1 28 Aug 11:06:04 11:09:09 20° 69° (ENE) 11:12:15 145.980
QB50P2 28 Aug 11:09:16 11:12:49 26° 71° (ENE) 11:16:24 145.880/145.840
TIGRISAT 28 Aug 11:10:44 11:15:06 42° 261° (W) 11:19:25 435.000
POLYITAN 1 28 Aug 11:11:45 11:15:21 27° 71° (ENE) 11:18:56 437.675
JAS-2 28 Aug 11:13:07 11:16:02 15° 62° (ENE) 11:19:03 435.910
HUMSAT D 28 Aug 11:14:24 11:18:29 77° 102° (ESE) 11:22:35 437.325/437.525
NANOSAT C BR1 28 Aug 11:19:31 11:23:15 30° 71° (ENE) 11:26:58 145.865
M-CUBED/EXP-1 PRIME 28 Aug 11:23:11 11:25:38 16° 97° (E) 11:27:57 437.505
CUSAT 1 28 Aug 11:34:29 11:40:54 45° 267° (W) 11:48:15 437.405
BEESAT 2 28 Aug 11:40:27 11:42:02 12° 313° (NW) 11:43:36 435.950
UNISAT 6 28 Aug 11:40:55 11:44:11 19° 266° (W) 11:47:25 437.425
Oscar 11 28 Aug 11:43:06 11:43:55 10° 295° (WNW) 11:44:43 145.826/435.025
GONETS M04 28 Aug 11:44:35 11:52:44 45° 88° (E) 12:00:56
BUGSAT 1 28 Aug 11:57:19 12:01:06 32° 72° (ENE) 12:04:53 437.445
QB50P1 28 Aug 12:03:24 12:07:39 73° 257° (WSW) 12:11:56 145.935-145.965
ESTCUBE 1 28 Aug 12:06:53 12:11:13 43° 99° (E) 12:15:32 437.505/2401.250
AISAT 28 Aug 12:12:26 12:16:12 26° 96° (E) 12:19:55 437.250
POPSAT HIP 1 28 Aug 12:13:34 12:17:47 55° 260° (W) 12:21:59 437.405
AIST 2 28 Aug 12:17:34 12:21:38 72° 116° (ESE) 12:25:45 435.215
Cosmos 2499 28 Aug 12:17:43 12:25:46 58° 92° (E) 12:33:13 435.465 / 435.565
UKube-1 28 Aug 12:18:25 12:20:41 14° 93° (E) 12:22:55 .
JUGNU 28 Aug 12:24:56 12:28:35 17° 178° (S) 12:32:14 437.505
Oscar 19 28 Aug 12:24:58 12:27:28 14° 63° (ENE) 12:29:59 437.125/150
DANDE 28 Aug 12:38:37 12:43:43 30° 267° (W) 12:49:53 436.750
DUCHIFAT 1 28 Aug 12:40:54 12:44:38 29° 263° (W) 12:48:22 145.980
PCSat 28 Aug 12:43:39 12:48:43 39° 302° (WNW) 12:53:48 145.827
QB50P2 28 Aug 12:45:14 12:48:33 22° 264° (W) 12:51:54 145.880/145.840
POLYITAN 1 28 Aug 12:47:46 12:51:05 22° 265° (W) 12:54:24 437.675
AUBIESAT-1 28 Aug 12:50:03 12:53:52 45° 292° (WNW) 12:57:23 437.475
JAS-2 28 Aug 12:55:28 13:00:31 56° 260° (W) 13:05:52 435.910
NANOSAT C BR1 28 Aug 12:55:56 12:58:58 19° 265° (W) 13:02:01 145.865
M-CUBED/EXP-1 PRIME 28 Aug 12:56:41 13:00:16 31° 294° (WNW) 13:03:36 437.505
RS-15 28 Aug 12:58:37 13:08:34 30° 257° (WSW) 13:18:20 29.354- 29.394
VELOX 1 28 Aug 12:59:08 13:03:38 88° 113° (ESE) 13:08:04 145.980
CUBEBUG 1 28 Aug 12:59:09 13:03:35 72° 284° (WNW) 13:07:57 437.445
50 SAT 28 Aug 13:00:17 13:03:56 75° 283° (WNW) 13:07:34 437.505
SPROUT 28 Aug 13:12:58 13:17:13 63° 101° (E) 13:21:25 437.525
DX 1 28 Aug 13:13:41 13:18:05 86° 103° (ESE) 13:22:27 434.975-435.025
TISAT 1 28 Aug 13:30:03 13:32:58 18° 95° (E) 13:35:51 437.305
BUGSAT 1 28 Aug 13:33:35 13:36:29 18° 266° (W) 13:39:25 437.445
Gurwin Techsat 1B 28 Aug 13:39:26 13:44:09 34° 70° (ENE) 13:48:53 435.225
O/OREOS (USA 219) 28 Aug 13:41:05 13:45:21 46° 106° (ESE) 13:49:40 437.305
GONETS M04 28 Aug 13:41:49 13:49:36 35° 286° (WNW) 13:57:29
ESTCUBE 1 28 Aug 13:44:54 13:47:38 16° 293° (WNW) 13:50:21 437.505/2401.250
AO-85 28 Aug 13:47:59 13:50:59 19° 49° (NE) 13:53:51 145.980
AISAT 28 Aug 13:48:57 13:52:32 24° 291° (WNW) 13:56:05 437.250
UKube-1 28 Aug 13:52:47 13:56:53 42° 287° (WNW) 14:00:57 .
AO-7 28 Aug 13:59:06 14:03:48 17° 53° (NE) 14:08:29 29.400- 29.500
AIST 2 28 Aug 13:59:21 14:00:35 11° 314° (NW) 14:01:49 435.215
Oscar 19 28 Aug 14:01:04 14:06:10 66° 258° (WSW) 14:11:21 437.125/150
SRMSAT 28 Aug 14:03:41 14:07:04 16° 174° (S) 14:10:27 437.500
Cosmos 2499 28 Aug 14:12:51 14:19:09 24° 287° (WNW) 14:25:11 435.465 / 435.565
JUGNU 28 Aug 14:13:46 14:16:50 14° 189° (S) 14:19:53 437.505
ISS 28 Aug 14:28:56 14:30:57 15° 28° (NNE) 14:32:59 145.825
ITUPSAT 1 28 Aug 14:30:39 14:33:35 16° 94° (E) 14:36:31 437.325
SWISSCUBE 28 Aug 15:01:56 15:06:26 41° 99° (E) 15:10:55 437.505
TISAT 1 28 Aug 15:04:56 15:08:38 30° 289° (WNW) 15:12:16 437.305
ITAMSAT 1 28 Aug 15:17:05 15:22:17 88° 77° (ENE) 15:27:29 435.822/435.867
BEESAT 28 Aug 15:18:50 15:23:31 56° 101° (E) 15:28:11 436.000
Gurwin Techsat 1B 28 Aug 15:19:41 15:24:04 26° 264° (W) 15:28:29 435.225
O/OREOS (USA 219) 28 Aug 15:22:24 15:25:01 15° 302° (WNW) 15:27:38 437.305
AO-85 28 Aug 15:27:47 15:31:31 34° 247° (WSW) 15:35:03 145.980
AO-7 28 Aug 15:46:56 15:55:17 81° 71° (ENE) 16:03:40 29.400- 29.500
SRMSAT 28 Aug 15:52:00 15:55:28 16° 185° (S) 15:58:56 437.500
ISS 28 Aug 16:04:28 16:07:43 66° 224° (SW) 16:10:57 145.825
ITUPSAT 1 28 Aug 16:07:03 16:11:35 44° 288° (WNW) 16:16:06 437.325
SWISSCUBE 28 Aug 16:40:40 16:43:53 18° 294° (WNW) 16:47:06 437.505
KKS-1 28 Aug 16:48:07 16:52:30 54° 101° (E) 16:56:50 437.445
BEESAT 28 Aug 16:58:26 17:00:47 14° 296° (WNW) 17:03:08 436.000
MOZHAYETS 4 28 Aug 17:00:55 17:05:29 78° 284° (WNW) 17:10:04
HORYU 2 28 Aug 17:05:18 17:09:39 54° 74° (ENE) 17:14:00 437.375
NOAA 18 28 Aug 17:16:10 17:18:46 14° 61° (ENE) 17:21:21 137.9125
STARS 28 Aug 17:21:15 17:25:36 61° 101° (E) 17:29:55 437.465
Cosmos 2491 28 Aug 17:22:08 17:28:55 26° 83° (E) 17:35:42 435.465 / 435.565
Cosmos 2504 28 Aug 17:22:13 17:24:20 11° 65° (ENE) 17:26:25 435.465 / 435.565
GOMX 1 28 Aug 17:23:14 17:26:07 15° 64° (ENE) 17:29:03 467.674
YUBILEINY 28 Aug 17:42:40 17:51:22 64° 80° (E) 17:59:58 435.215
SRMSAT 28 Aug 17:43:05 17:43:50 10° 194° (SSW) 17:44:35 437.500
AO-7 28 Aug 17:43:29 17:48:46 18° 267° (W) 17:54:06 29.400- 29.500
BRITE-PL 28 Aug 17:50:07 17:54:49 60° 74° (ENE) 17:59:58 437.365/2234.400
Cubesat XI-IV 28 Aug 17:53:30 17:58:11 32° 69° (ENE) 18:02:52 437.490
NOAA 15 28 Aug 18:02:23 18:07:27 51° 72° (ENE) 18:12:32 137.62
CUTE-I 28 Aug 18:04:40 18:09:39 41° 71° (ENE) 18:14:37 437.470
BEESAT 2 28 Aug 18:21:35 18:24:04 16° 49° (NE) 18:26:33 435.950
CUBESAT XI-V 28 Aug 18:23:39 18:28:23 83° 282° (WNW) 18:33:05 437.345
KKS-1 28 Aug 18:26:41 18:28:33 12° 295° (WNW) 18:30:23 437.445
LilacSat-2 28 Aug 18:29:38 18:33:27 71° 77° (ENE) 18:37:17 437.200
BEESAT 3 28 Aug 18:36:35 18:40:21 41° 57° (ENE) 18:44:06 437.485
HO-68 28 Aug 18:42:41 18:47:23 19° 59° (ENE) 18:52:06 435.675
HORYU 2 28 Aug 18:44:58 18:46:29 11° 268° (W) 18:47:59 437.375
NOAA 18 28 Aug 18:53:11 18:58:43 76° 256° (WSW) 19:04:16 137.9125
GOMX 1 28 Aug 18:58:33 19:03:31 61° 260° (W) 19:08:49 467.674
DOVE 4 28 Aug 18:59:35 19:04:38 63° 75° (ENE) 19:09:53 437.250
STARS 28 Aug 19:00:18 19:01:23 11° 296° (WNW) 19:02:28 437.465
Cosmos 2504 28 Aug 19:11:34 19:18:49 85° 85° (E) 19:26:01 435.465 / 435.565
Cosmos 2491 28 Aug 19:16:32 19:25:03 59° 280° (W) 19:33:41 435.465 / 435.565
BRITE-PL 28 Aug 19:31:44 19:33:49 13° 271° (W) 19:35:57 437.365/2234.400
CINEMA 3 28 Aug 19:32:49 19:37:26 38° 72° (ENE) 19:42:01 145.822/145.860
Cubesat XI-IV 28 Aug 19:33:40 19:38:11 28° 264° (W) 19:42:44 437.490
SEEDS 28 Aug 19:36:32 19:39:22 18° 69° (ENE) 19:42:12 437.485
YUBILEINY 28 Aug 19:40:55 19:47:21 24° 278° (W) 19:53:46 435.215
AIST 1 28 Aug 19:41:23 19:43:24 13° 72° (ENE) 19:45:24
NOAA 15 28 Aug 19:44:10 19:47:28 17° 267° (W) 19:50:46 137.62
CUBEBUG 2 28 Aug 19:45:45 19:48:03 14° 66° (ENE) 19:50:20 437.445
CUTE-I 28 Aug 19:45:48 19:49:48 21° 265° (W) 19:53:48 437.470
PCSat 28 Aug 19:52:53 19:55:13 13° 46° (NE) 19:57:33 145.827
BEESAT 2 28 Aug 19:58:17 20:02:05 42° 245° (WSW) 20:05:51 435.950
CANX-2 28 Aug 19:58:56 20:03:02 58° 75° (ENE) 20:07:10 2200.000
AAUSAT CUBESAT 2 28 Aug 20:04:10 20:07:09 20° 69° (ENE) 20:10:09 437.432
CUTE 1.7 + AOD 2 28 Aug 20:04:48 20:08:54 58° 76° (ENE) 20:13:03 437.475
STRAND 1 28 Aug 20:10:22 20:15:25 60° 101° (E) 20:20:27 437.568
COMPASS 1 28 Aug 20:12:37 20:16:17 32° 72° (ENE) 20:19:57 437.405
BEESAT 3 28 Aug 20:15:42 20:17:37 13° 252° (WSW) 20:19:31 437.485
HO-68 28 Aug 20:27:06 20:34:17 77° 255° (WSW) 20:41:31 435.675
DOVE 4 28 Aug 20:40:12 20:42:43 14° 270° (W) 20:45:16 437.250
AIST 2 28 Aug 20:42:11 20:45:21 20° 51° (NE) 20:48:30 435.215
PRISM 28 Aug 20:48:29 20:50:33 13° 93° (E) 20:52:35 437.425
Oscar 11 28 Aug 20:56:03 20:59:51 31° 72° (ENE) 21:03:39 145.826/435.025
FUNcube-1 28 Aug 21:04:50 21:08:56 38° 73° (ENE) 21:12:59 145.935
Cosmos 2504 28 Aug 21:08:23 21:11:04 12° 281° (W) 21:13:45 435.465 / 435.565
CINEMA 3 28 Aug 21:10:50 21:14:36 21° 266° (W) 21:18:21 145.822/145.860
SEEDS 28 Aug 21:11:08 21:14:49 30° 263° (W) 21:18:30 437.485
UWE-3 28 Aug 21:14:40 21:19:16 88° 72° (ENE) 21:23:46 435.000/436.395/437.385
AIST 1 28 Aug 21:17:02 21:21:14 45° 268° (W) 21:25:23
CUBEBUG 2 28 Aug 21:19:37 21:24:13 54° 260° (W) 21:28:43 437.445
ZACube-1 28 Aug 21:26:36 21:31:05 75° 76° (ENE) 21:35:27 437.345
DELFI C3 28 Aug 21:32:14 21:35:42 30° 72° (ENE) 21:39:10 145.870
PCSat 28 Aug 21:33:56 21:39:23 88° 69° (ENE) 21:44:47 145.827
AAUSAT CUBESAT 2 28 Aug 21:38:57 21:42:26 27° 264° (W) 21:45:57 437.432
COMPASS 1 28 Aug 21:49:16 21:51:53 16° 266° (W) 21:54:31 437.405
STRAND 1 28 Aug 21:51:19 21:54:02 15° 296° (WNW) 21:56:46 437.568
GONETS M04 28 Aug 21:59:38 22:05:27 19° 67° (ENE) 22:11:14
AUBIESAT-1 28 Aug 22:00:32 22:02:27 12° 60° (ENE) 22:04:23 437.475
HUMSAT D 28 Aug 22:02:46 22:06:33 34° 73° (ENE) 22:10:18 437.325/437.525
M-CUBED/EXP-1 PRIME 28 Aug 22:05:57 22:09:04 18° 62° (ENE) 22:12:12 437.505
Cosmos 2499 28 Aug 22:14:54 22:18:03 13° 67° (ENE) 22:21:12 435.465 / 435.565
AIST 2 28 Aug 22:20:06 22:23:53 33° 247° (WSW) 22:27:39 435.215
SO-50 28 Aug 22:21:26 22:24:07 15° 108° (ESE) 22:26:49 436.795
PRISM 28 Aug 22:22:03 22:26:00 41° 287° (WNW) 22:29:55 437.425
Oscar 11 28 Aug 22:33:00 22:36:00 18° 266° (W) 22:39:00 145.826/435.025
ANTELSAT 28 Aug 22:35:08 22:38:28 22° 95° (E) 22:41:46 437.575/2403.000
FUNcube-1 28 Aug 22:42:29 22:45:15 16° 266° (W) 22:48:00 145.935
CUSAT 1 28 Aug 22:56:22 22:58:01 14° 86° (E) 22:59:49 437.405
ESTCUBE 1 28 Aug 23:03:48 23:07:35 28° 70° (ENE) 23:11:24 437.505/2401.250
TIGRISAT 28 Aug 23:05:04 23:09:12 47° 99° (E) 23:13:17 435.000
AISAT 28 Aug 23:07:41 23:10:36 17° 67° (ENE) 23:13:32 437.250
DELFI C3 28 Aug 23:08:13 23:10:34 15° 266° (W) 23:12:58 145.870
AUBIESAT-1 28 Aug 23:31:42 23:36:18 68° 254° (WSW) 23:40:55 437.475
UNISAT 6 28 Aug 23:34:04 23:38:20 70° 283° (WNW) 23:42:32 437.425
50 SAT 28 Aug 23:34:54 23:37:57 27° 72° (ENE) 23:41:01 437.505
M-CUBED/EXP-1 PRIME 28 Aug 23:38:41 23:43:10 46° 256° (WSW) 23:47:42 437.505
HUMSAT D 28 Aug 23:39:44 23:42:14 15° 266° (W) 23:44:44 437.325/437.525
QB50P1 28 Aug 23:51:46 23:55:01 22° 95° (E) 23:58:15 145.935-145.965
CUBEBUG 1 28 Aug 23:51:47 23:56:06 63° 76° (ENE) 00:00:29 437.445
VELOX 1 28 Aug 23:53:15 23:57:34 53° 74° (ENE) 00:01:54 145.980
O/OREOS (USA 219) 28 Aug 23:53:43 23:58:15 56° 68° (ENE) 00:02:45 437.305
GONETS M04 28 Aug 23:54:22 00:03:16 82° 266° (W) 00:12:05
SO-50 28 Aug 23:59:22 00:04:08 56° 302° (WNW) 00:08:53 436.795
POPSAT HIP 1 29 Aug 00:01:36 00:05:14 28° 97° (E) 00:08:49 437.405
SPROUT 29 Aug 00:03:36 00:07:27 32° 72° (ENE) 00:11:19 437.525
Cosmos 2499 29 Aug 00:04:56 00:12:01 85° 264° (W) 00:19:14 435.465 / 435.565
DANDE 29 Aug 00:05:02 00:07:16 26° 94° (E) 00:09:36 436.750
DX 1 29 Aug 00:06:04 00:10:16 49° 74° (ENE) 00:14:31 434.975-435.025
JAS-2 29 Aug 00:06:14 00:11:56 25° 95° (E) 00:17:57 435.910
ANTELSAT 29 Aug 00:11:35 00:15:07 26° 290° (WNW) 00:18:37 437.575/2403.000
TISAT 1 29 Aug 00:21:35 00:21:55 10° 64° (ENE) 00:22:13 437.305
